Flag for U.S.A. Weather past 2 weeks in Bellingham, Washington, U.S.A.

Now
54 °F

Fog.


Feels Like: 54 °F
Forecast: 56 / 79 °F
Wind: No wind

Location: Bellingham International Airport

Current Time: Sep 21, 2014 at 1:32:56 AM

Latest Report: Sep 21, 2014 at 1:01 AM


Visibility: 2 mi

Pressure: 29.89 "Hg

Humidity: 94%

Dew point: 52 °F

Location of BellinghamLocation

Historic Weather in Bellingham — Graph

°F

Bellingham temperature yesterday

Maximum temperature yesterday: 75 °F (at 1:53 PM)
Minimum temperature yesterday: 54 °F (at 6:01 AM)
Average temperature yesterday: 64 °F

Past Weeks' High & Low Weather Summary

 TemperatureHumidityPressure
High81 °F (Sep 15, 12:53 PM)100% (Sep 20, 6:01 AM)30.34 "Hg (Sep 20, 6:01 AM)
Low41 °F (Sep 12, 6:53 AM)18% (Sep 10, 12:53 PM)29.71 "Hg (Sep 17, 5:53 PM)
Average62 °F70%29.98 "Hg
* Reported Sep 6 12:53 AM — Midnight between Sep 20 and Sep 21, Bellingham, Weather by CustomWeather, © 2014

Note: Actual official high and low records may vary slightly from our data, if they occured in-between our weather recording intervals... More about our weather records

Advertising

Bellingham weather history for previous 24 hours

 ConditionsComfort  
Time TempWeatherWind HumidityBarometerVisibility
12:00 AM
Sep 21
55 °FFog.No wind88%29.90 "Hg3 mi
11:02 PM
Sep 20
55 °FFog.No wind88%29.91 "Hg2 mi
10:53 PM57 °FClear.No wind90%29.93 "Hg7 mi
9:53 PM58 °FClear.No wind90%29.93 "Hg10 mi
8:53 PM59 °FClear.No wind90%29.93 "Hg10 mi
7:53 PM61 °FSunny.No wind83%29.94 "Hg10 mi
6:53 PM65 °FSunny.No wind76%29.95 "Hg10 mi
5:53 PM71 °FSunny.5 mph59%29.97 "Hg10 mi
4:53 PM72 °FSunny.9 mph61%29.99 "Hg10 mi
3:53 PM75 °FSunny.7 mph58%30.01 "Hg10 mi
2:53 PM75 °FSunny.7 mph54%30.03 "Hg10 mi
1:53 PM75 °FSunny.6 mph48%30.06 "Hg10 mi
12:53 PM73 °FSunny.7 mph53%30.09 "Hg10 mi
11:53 AM71 °FSunny.10 mph55%30.11 "Hg10 mi
10:53 AM67 °FSunny.14 mph63%30.12 "Hg10 mi
6:01 AM54 °FLow clouds.6 mph100%30.13 "Hg2 mi
5:04 AM55 °FDense fog.7 mph94%30.13 "Hg1 mi
3:53 AM57 °FDense fog.6 mph93%30.15 "Hg1 mi
3:01 AM57 °FDense fog.3 mph94%30.13 "Hg1 mi
1:53 AM59 °FDense fog.7 mph93%30.15 "Hg1 mi
Weather by CustomWeather, © 2014

See weather overviewHow to use our weather pages